This demonstration page uses our WeatherBlox Daily Observations layout. Learn more.

Left ArrowRight Arrow

41.12389, -100.76542

Hourly Observations for December 27, 2016

Temp ( °F °C ) Dew Point ( °F °C ) Humidity (%) Winds ( mph kmh ) Pressure ( in mb ) Visibility ( mi km ) Precip ( " mm )
12:53 am 00:53 Clear 17 -8.3 13 -10.6 84 84 NW 6 9 30.31 1027 10 16 0.00 0.00
1:53 am 01:53 Clear 15 -9.4 12 -11.1 88 88 NNW 5 7 30.30 1026 10 16 0.00 0.00
2:53 am 02:53 Clear 17 -8.3 14 -10 88 88 SSW 5 7 30.29 1026 10 16 0.00 0.00
3:53 am 03:53 Clear 14 -10 11 -11.7 88 88 Calm 30.31 1026 10 16 0.00 0.00
4:53 am 04:53 Clear 14 -10 10 -12.2 84 84 N 5 7 30.29 1026 10 16 0.00 0.00
5:53 am 05:53 Clear 13 -10.6 9 -12.8 84 84 Calm 30.29 1026 10 16 0.00 0.00
6:53 am 06:53 Clear 10 -12.2 7 -13.9 87 87 WNW 3 6 30.31 1026 10 16 0.00 0.00
7:53 am 07:53 Clear 10 -12.2 6 -14.4 84 84 NW 5 7 30.32 1027 10 16 0.00 0.00
8:53 am 08:53 Sunny 16 -8.9 12 -11.1 84 84 WNW 3 6 30.29 1026 10 16 0.00 0.00
9:53 am 09:53 Sunny 24 -4.4 18 -7.8 77 77 WNW 6 9 30.29 1026 10 16 0.00 0.00
10:53 am 10:53 Sunny 29 -1.7 19 -7.2 66 66 W 3 6 30.26 1025 10 16 0.00 0.00
11:53 am 11:53 Sunny 36 2.2 22 -5.6 57 57 W 5 7 30.20 1023 10 16 0.00 0.00
12:53 pm 12:53 Sunny 44 6.7 17 -8.3 34 34 WSW 8 13 30.14 1021 10 16 0.00 0.00
1:53 pm 13:53 Sunny 47 8.3 14 -10 26 26 SW 9 15 30.09 1019 10 16 0.00 0.00
2:53 pm 14:53 Sunny 50 10 11 -11.7 21 21 SW 10 17 30.06 1018 10 16 0.00 0.00
3:53 pm 15:53 Sunny 48 8.9 12 -11.1 23 23 S 12 19 30.03 1017 10 16 0.00 0.00
4:53 pm 16:53 Sunny 42 5.6 15 -9.4 33 33 S 8 13 30.02 1017 10 16 0.00 0.00
5:53 pm 17:53 Clear 36 2.2 16 -8.9 44 44 S 6 9 30.03 1017 10 16 0.00 0.00
6:53 pm 18:53 Clear 26 -3.3 17 -8.3 69 69 WSW 3 6 30.05 1018 10 16 0.00 0.00
7:53 pm 19:53 Clear 33 0.6 19 -7.2 56 56 S 8 13 30.00 1016 10 16 0.00 0.00
8:53 pm 20:53 Clear 34 1.1 20 -6.7 56 56 NE 3 6 29.99 1016 10 16 0.00 0.00
9:53 pm 21:53 Clear 28 -2.2 19 -7.2 69 69 SSW 3 6 29.98 1015 10 16 0.00 0.00
10:53 pm 22:53 Clear 24 -4.4 18 -7.8 77 77 Calm 29.97 1015 10 16 0.00 0.00
11:53 pm 23:53 Clear 23 -5 17 -8.3 78 78 Calm 29.95 1014 10 16 0.00 0.00

Powered by AerisWeather